Station History

Weather Underground - logo

Station Historical Data
 
Daily Summary for March 19, 2019 Units:  English    Metric   Both
« Previous Day
Next Day »
Daily Weekly Monthly Yearly Custom
  Current: High: Low: Average:
Temperature: 71.0 °F TemperatureF °F 50.4 °F 63.6 °F
Dew Point: 50.9 °F DewpointF °F 44.6 °F 48 °F
Humidity: 49 % Humidity % 32 % 61 %
Wind Speed: 0.0 mph WindSpeedMPH mph 0.0 mph 0.8 mph
Wind Gust: 0.0 mph WindSpeedGustMPH mph - -
Wind:Calm - - West
Pressure: 29.76 in PressureIn in 29.76 in -
Precipitation: 0.00 in      
Historical Graphs
 
 
Tabular Data for March 19, 2019
Time Temperature Dew Point Pressure Wind Wind Speed Wind Gust Humidity Rainfall Rate (Hourly)
TemperatureF °F DewpointF °F PressureIn in Calm     Humidity % HourlyPrecipIn in
00:04 56.4 °F 50.3 °F 29.92 in Calm     80 % 0.00 in
00:09 56.4 °F 50.6 °F 29.92 in Calm     81 % 0.00 in
00:14 56.6 °F 50.5 °F 29.92 in Calm     80 % 0.00 in
00:19 56.5 °F 50.7 °F 29.91 in Calm     81 % 0.00 in
00:24 56.5 °F 50.7 °F 29.91 in Calm     81 % 0.00 in
00:29 56.4 °F 50.3 °F 29.91 in Calm     80 % 0.00 in
00:34 55.9 °F 49.8 °F 29.91 in Calm     80 % 0.00 in
00:39 55.4 °F 49.7 °F 29.91 in Calm     81 % 0.00 in
00:44 55.0 °F 49.6 °F 29.91 in Calm     82 % 0.00 in
00:49 54.7 °F 49.6 °F 29.91 in Calm     83 % 0.00 in
00:54 54.5 °F 49.4 °F 29.91 in Calm     83 % 0.00 in
00:59 54.3 °F 49.9 °F 29.90 in Calm     85 % 0.00 in
01:04 54.3 °F 49.9 °F 29.90 in Calm     85 % 0.00 in
01:09 54.5 °F 50.4 °F 29.90 in Calm     86 % 0.00 in
01:14 54.6 °F 50.5 °F 29.90 in Calm     86 % 0.00 in
01:19 54.6 °F 50.2 °F 29.90 in Calm     85 % 0.00 in
01:24 54.5 °F 50.1 °F 29.90 in Calm     85 % 0.00 in
01:29 54.5 °F 50.4 °F 29.90 in Calm     86 % 0.00 in
01:34 54.5 °F 50.4 °F 29.90 in Calm     86 % 0.00 in
01:39 54.6 °F 50.5 °F 29.90 in Calm     86 % 0.00 in
01:44 54.9 °F 50.5 °F 29.90 in Calm     85 % 0.00 in
01:49 54.9 °F 50.2 °F 29.90 in Calm     84 % 0.00 in
01:54 54.8 °F 50.1 °F 29.90 in Calm     84 % 0.00 in
01:59 54.7 °F 50.3 °F 29.90 in Calm     85 % 0.00 in
02:04 54.4 °F 50.0 °F 29.90 in Calm     85 % 0.00 in
02:09 54.3 °F 50.2 °F 29.90 in Calm     86 % 0.00 in
02:14 54.4 °F 50.3 °F 29.90 in Calm     86 % 0.00 in
02:19 54.7 °F 50.6 °F 29.91 in Calm     86 % 0.00 in
02:24 54.7 °F 50.3 °F 29.90 in Calm     85 % 0.00 in
02:29 54.6 °F 50.5 °F 29.90 in Calm     86 % 0.00 in
02:34 54.5 °F 50.4 °F 29.90 in Calm     86 % 0.00 in
02:39 54.3 °F 50.2 °F 29.90 in Calm     86 % 0.00 in
02:44 54.3 °F 50.2 °F 29.90 in Calm     86 % 0.00 in
02:49 54.0 °F 49.6 °F 29.91 in Calm     85 % 0.00 in
02:54 53.8 °F 49.7 °F 29.91 in Calm     86 % 0.00 in
02:59 53.6 °F 49.5 °F 29.91 in Calm     86 % 0.00 in
03:04 53.5 °F 49.7 °F 29.91 in Calm     87 % 0.00 in
03:09 53.4 °F 49.6 °F 29.91 in Calm     87 % 0.00 in
03:14 53.4 °F 49.6 °F 29.91 in Calm     87 % 0.00 in
03:19 53.3 °F 49.5 °F 29.90 in Calm     87 % 0.00 in
03:24 53.5 °F 49.7 °F 29.91 in Calm     87 % 0.00 in
03:29 53.6 °F 49.8 °F 29.90 in Calm     87 % 0.00 in
03:34 53.6 °F 49.5 °F 29.90 in Calm     86 % 0.00 in
03:39 53.6 °F 49.5 °F 29.90 in Calm     86 % 0.00 in
03:44 53.6 °F 49.5 °F 29.90 in Calm     86 % 0.00 in
03:49 53.9 °F 49.5 °F 29.90 in Calm     85 % 0.00 in
03:54 54.1 °F 49.4 °F 29.90 in Calm     84 % 0.00 in
03:59 54.1 °F 49.4 °F 29.90 in Calm     84 % 0.00 in
04:04 54.0 °F 49.3 °F 29.90 in Calm     84 % 0.00 in
04:09 53.7 °F 49.0 °F 29.90 in Calm     84 % 0.00 in
04:14 53.4 °F 49.0 °F 29.90 in Calm     85 % 0.00 in
04:19 53.3 °F 48.9 °F 29.90 in Calm     85 % 0.00 in
04:24 53.2 °F 48.8 °F 29.90 in Calm     85 % 0.00 in
04:29 52.9 °F 48.5 °F 29.90 in Calm     85 % 0.00 in
04:34 52.6 °F 48.2 °F 29.89 in Calm     85 % 0.00 in
04:39 52.3 °F 48.2 °F 29.89 in Calm     86 % 0.00 in
04:44 52.0 °F 47.9 °F 29.89 in Calm     86 % 0.00 in
04:49 51.7 °F 47.3 °F 29.89 in Calm     85 % 0.00 in
04:54 51.6 °F 47.5 °F 29.90 in Calm     86 % 0.00 in
04:59 51.3 °F 47.3 °F 29.90 in Calm     86 % 0.00 in
05:04 51.1 °F 47.1 °F 29.90 in Calm     86 % 0.00 in
05:09 50.8 °F 46.8 °F 29.89 in Calm     86 % 0.00 in
05:14 50.6 °F 46.9 °F 29.89 in Calm     87 % 0.00 in
05:19 50.5 °F 47.1 °F 29.89 in Calm     88 % 0.00 in
05:24 50.4 °F 47.0 °F 29.90 in Calm     88 % 0.00 in
05:29 51.0 °F 47.3 °F 29.89 in Calm     87 % 0.00 in
05:34 51.5 °F 47.1 °F 29.90 in Calm     85 % 0.00 in
05:39 51.8 °F 47.1 °F 29.90 in Calm     84 % 0.00 in
05:44 52.0 °F 47.0 °F 29.90 in Calm     83 % 0.00 in
05:49 51.8 °F 46.8 °F 29.90 in Calm     83 % 0.00 in
05:54 51.7 °F 47.0 °F 29.90 in Calm     84 % 0.00 in
05:59 51.5 °F 46.8 °F 29.90 in ESE 1.2 mph   84 % 0.00 in
06:04 51.7 °F 47.3 °F 29.90 in Calm   0.1 mph 85 % 0.00 in
06:09 52.0 °F 47.3 °F 29.90 in Calm     84 % 0.00 in
06:14 52.0 °F 47.0 °F 29.90 in Calm     83 % 0.00 in
06:19 52.0 °F 46.7 °F 29.90 in Calm     82 % 0.00 in
06:24 51.4 °F 46.4 °F 29.90 in Calm     83 % 0.00 in
06:29 51.0 °F 46.3 °F 29.90 in Calm     84 % 0.00 in
06:34 51.3 °F 46.3 °F 29.90 in Calm     83 % 0.00 in
06:39 51.6 °F 46.3 °F 29.90 in Calm     82 % 0.00 in
06:44 51.4 °F 46.1 °F 29.90 in Calm     82 % 0.00 in
06:49 51.4 °F 46.4 °F 29.90 in Calm     83 % 0.00 in
06:54 51.4 °F 46.1 °F 29.91 in ESE 1.2 mph   82 % 0.00 in
06:59 51.4 °F 46.1 °F 29.91 in Calm     82 % 0.00 in
07:04 51.4 °F 46.1 °F 29.91 in Calm     82 % 0.00 in
07:09 51.4 °F 46.1 °F 29.91 in Calm     82 % 0.00 in
07:14 51.3 °F 46.0 °F 29.91 in Calm     82 % 0.00 in
07:19 51.7 °F 45.7 °F 29.91 in ESE 1.2 mph   80 % 0.00 in
07:24 52.4 °F 45.7 °F 29.91 in Calm     78 % 0.00 in
07:29 52.7 °F 45.7 °F 29.91 in ESE 1.2 mph 0.1 mph 77 % 0.00 in
07:34 53.1 °F 45.7 °F 29.91 in Calm     76 % 0.00 in
07:39 53.5 °F 45.8 °F 29.91 in Calm     75 % 0.00 in
07:44 54.0 °F 45.9 °F 29.91 in Calm     74 % 0.00 in
07:49 54.2 °F 45.7 °F 29.91 in Calm     73 % 0.00 in
07:54 54.6 °F 45.4 °F 29.91 in ESE 1.2 mph   71 % 0.00 in
07:59 55.0 °F 45.4 °F 29.92 in Calm     70 % 0.00 in
08:04 55.3 °F 46.1 °F 29.92 in Calm     71 % 0.00 in
08:09 55.6 °F 45.6 °F 29.92 in Calm     69 % 0.00 in
08:14 56.1 °F 46.8 °F 29.92 in Calm     71 % 0.00 in
08:19 56.5 °F 46.4 °F 29.92 in Calm     69 % 0.00 in
08:24 57.2 °F 47.1 °F 29.92 in Calm     69 % 0.00 in
08:29 57.5 °F 47.4 °F 29.92 in Calm     69 % 0.00 in
08:34 57.6 °F 47.9 °F 29.92 in Calm     70 % 0.00 in
08:39 57.7 °F 48.4 °F 29.92 in Calm     71 % 0.00 in
08:44 57.9 °F 47.0 °F 29.92 in Calm     67 % 0.00 in
08:49 58.6 °F 47.7 °F 29.92 in Calm     67 % 0.00 in
08:54 59.7 °F 48.7 °F 29.92 in Calm     67 % 0.00 in
08:59 61.2 °F 49.7 °F 29.93 in ESE 1.2 mph   66 % 0.00 in
09:04 62.2 °F 49.9 °F 29.93 in Calm     64 % 0.00 in
09:09 62.6 °F 50.2 °F 29.93 in Calm     64 % 0.00 in
09:14 63.2 °F 50.4 °F 29.93 in Calm     63 % 0.00 in
09:19 63.9 °F 50.2 °F 29.92 in Calm     61 % 0.00 in
09:24 64.5 °F 50.7 °F 29.92 in South 1.2 mph 0.1 mph 61 % 0.00 in
09:29 65.4 °F 50.2 °F 29.93 in Calm     58 % 0.00 in
09:34 66.0 °F 49.8 °F 29.93 in East 1.2 mph   56 % 0.00 in
09:39 66.5 °F 50.3 °F 29.93 in ESE 1.2 mph   56 % 0.00 in
09:44 67.0 °F 48.8 °F 29.93 in SE 1.2 mph 0.3 mph 52 % 0.00 in
09:49 67.1 °F 49.9 °F 29.93 in Calm     54 % 0.00 in
09:54 67.5 °F 50.3 °F 29.93 in South 2.3 mph   54 % 0.00 in
09:59 67.9 °F 50.6 °F 29.92 in Calm   0.1 mph 54 % 0.00 in
10:04 68.5 °F 50.2 °F 29.92 in ESE 1.2 mph 1.0 mph 52 % 0.00 in
10:09 68.8 °F 51.0 °F 29.92 in West 1.2 mph   53 % 0.00 in
10:14 69.3 °F 50.4 °F 29.92 in ENE 1.2 mph 0.1 mph 51 % 0.00 in
10:19 69.7 °F 50.2 °F 29.91 in NE 1.2 mph   50 % 0.00 in
10:24 70.3 °F 50.2 °F 29.91 in Calm     49 % 0.00 in
10:29 70.8 °F 51.2 °F 29.91 in Calm     50 % 0.00 in
10:34 71.3 °F 50.6 °F 29.91 in East 1.0 mph 0.1 mph 48 % 0.00 in
10:39 71.6 °F 50.9 °F 29.91 in Calm     48 % 0.00 in
10:44 72.2 °F 50.3 °F 29.91 in SSW 1.2 mph 0.7 mph 46 % 0.00 in
10:49 72.5 °F 49.9 °F 29.91 in Calm     45 % 0.00 in
10:54 72.2 °F 49.7 °F 29.91 in NNW 2.3 mph   45 % 0.00 in
10:59 72.6 °F 50.0 °F 29.91 in Calm     45 % 0.00 in
11:04 72.8 °F 49.6 °F 29.91 in Calm     44 % 0.00 in
11:09 73.0 °F 51.0 °F 29.91 in Calm     46 % 0.00 in
11:14 73.6 °F 49.1 °F 29.90 in SE 1.2 mph 0.1 mph 42 % 0.00 in
11:19 74.1 °F 50.2 °F 29.90 in WNW 1.2 mph 0.2 mph 43 % 0.00 in
11:24 74.3 °F 49.7 °F 29.90 in ENE 1.2 mph 0.4 mph 42 % 0.00 in
11:29 74.3 °F 49.1 °F 29.90 in Calm     41 % 0.00 in
11:34 74.3 °F 48.4 °F 29.90 in WNW 1.2 mph 0.4 mph 40 % 0.00 in
11:39 73.9 °F 48.1 °F 29.89 in NNW 1.2 mph   40 % 0.00 in
11:44 74.0 °F 48.1 °F 29.89 in NW 2.3 mph 1.4 mph 40 % 0.00 in
11:49 73.8 °F 49.3 °F 29.89 in NNW 1.2 mph 1.0 mph 42 % 0.00 in
11:54 73.6 °F 47.1 °F 29.89 in NW 2.3 mph 0.5 mph 39 % 0.00 in
11:59 73.7 °F 47.2 °F 29.88 in SSW 1.2 mph   39 % 0.00 in
12:04 73.7 °F 47.2 °F 29.88 in ENE 1.2 mph   39 % 0.00 in
12:09 74.0 °F 48.1 °F 29.88 in NW 4.0 mph 1.6 mph 40 % 0.00 in
12:14 74.0 °F 48.1 °F 29.88 in NNW 3.5 mph 1.7 mph 40 % 0.00 in
12:19 74.1 °F 48.2 °F 29.88 in NW 3.5 mph 0.9 mph 40 % 0.00 in
12:24 74.1 °F 46.9 °F 29.88 in NW 2.3 mph 0.5 mph 38 % 0.00 in
12:29 74.3 °F 45.6 °F 29.87 in NNW 3.5 mph 1.8 mph 36 % 0.00 in
12:34 74.3 °F 45.6 °F 29.88 in WSW 2.3 mph 1.1 mph 36 % 0.00 in
12:39 74.4 °F 47.1 °F 29.87 in WNW 2.3 mph 2.0 mph 38 % 0.00 in
12:44 74.5 °F 47.9 °F 29.87 in NW 2.3 mph 0.4 mph 39 % 0.00 in
12:49 74.3 °F 47.0 °F 29.87 in NW 3.5 mph 1.9 mph 38 % 0.00 in
12:54 74.2 °F 47.6 °F 29.87 in NW 3.5 mph 2.0 mph 39 % 0.00 in
12:59 74.2 °F 47.6 °F 29.86 in WNW 2.3 mph 1.2 mph 39 % 0.00 in
13:04 74.9 °F 48.3 °F 29.86 in NE 3.5 mph 3.0 mph 39 % 0.00 in
13:09 75.3 °F 47.2 °F 29.86 in NW 3.5 mph 1.2 mph 37 % 0.00 in
13:14 75.5 °F 47.4 °F 29.86 in WNW 2.3 mph 1.2 mph 37 % 0.00 in
13:19 75.8 °F 47.7 °F 29.86 in NNW 3.5 mph 2.0 mph 37 % 0.00 in
13:24 76.1 °F 48.6 °F 29.86 in NW 3.5 mph 2.4 mph 38 % 0.00 in
13:29 76.4 °F 48.2 °F 29.85 in NW 3.5 mph 3.1 mph 37 % 0.00 in
13:34 75.8 °F 47.7 °F 29.85 in WNW 3.5 mph 1.2 mph 37 % 0.00 in
13:39 75.7 °F 47.6 °F 29.85 in WNW 3.5 mph 3.0 mph 37 % 0.00 in
13:44 75.3 °F 46.5 °F 29.85 in WSW 1.2 mph 0.3 mph 36 % 0.00 in
13:49 75.4 °F 46.6 °F 29.84 in NW 2.3 mph   36 % 0.00 in
13:54 75.4 °F 46.6 °F 29.84 in NW 3.5 mph   36 % 0.00 in
13:59 75.6 °F 47.5 °F 29.84 in NNW 1.2 mph 0.8 mph 37 % 0.00 in
14:04 75.9 °F 47.8 °F 29.83 in NNW 1.2 mph 0.4 mph 37 % 0.00 in
14:09 76.0 °F 47.1 °F 29.83 in WNW 2.3 mph 0.1 mph 36 % 0.00 in
14:14 75.8 °F 46.2 °F 29.83 in NW 3.5 mph 0.2 mph 35 % 0.00 in
14:19 75.6 °F 47.5 °F 29.82 in WNW 3.5 mph 2.5 mph 37 % 0.00 in
14:24 75.5 °F 47.4 °F 29.82 in NW 3.5 mph 1.4 mph 37 % 0.00 in
14:29 75.8 °F 47.7 °F 29.82 in NW 3.5 mph 1.4 mph 37 % 0.00 in
14:34 75.9 °F 46.3 °F 29.82 in NW 3.5 mph 1.2 mph 35 % 0.00 in
14:39 76.0 °F 47.8 °F 29.82 in NNW 1.2 mph 0.2 mph 37 % 0.00 in
14:44 76.2 °F 45.8 °F 29.82 in Calm     34 % 0.00 in
14:49 76.3 °F 46.6 °F 29.81 in NW 2.3 mph 1.2 mph 35 % 0.00 in
14:54 76.0 °F 45.6 °F 29.81 in NW 2.3 mph 1.6 mph 34 % 0.00 in
14:59 76.1 °F 45.7 °F 29.81 in WNW 1.0 mph   34 % 0.00 in
15:04 76.7 °F 44.6 °F 29.80 in West 2.3 mph 0.4 mph 32 % 0.00 in
15:09 76.9 °F 44.8 °F 29.81 in West 1.2 mph   32 % 0.00 in
15:14 76.6 °F 46.9 °F 29.80 in NNW 2.3 mph 0.1 mph 35 % 0.00 in
15:19 76.7 °F 44.6 °F 29.80 in NW 3.5 mph 2.3 mph 32 % 0.00 in
15:24 76.6 °F 46.1 °F 29.80 in Calm   0.1 mph 34 % 0.00 in
15:29 76.7 °F 46.2 °F 29.80 in NW 1.2 mph 0.8 mph 34 % 0.00 in
15:34 76.7 °F 46.2 °F 29.80 in NW 3.5 mph 2.8 mph 34 % 0.00 in
15:39 76.4 °F 46.7 °F 29.80 in NW 1.2 mph 0.4 mph 35 % 0.00 in
15:44 76.4 °F 45.9 °F 29.80 in NW 3.0 mph 1.0 mph 34 % 0.00 in
15:49 76.3 °F 46.6 °F 29.80 in WNW 1.2 mph 0.4 mph 35 % 0.00 in
15:54 76.3 °F 45.1 °F 29.80 in NW 2.3 mph   33 % 0.00 in
15:59 76.2 °F 45.8 °F 29.80 in NW 2.3 mph 0.5 mph 34 % 0.00 in
16:04 76.1 °F 46.5 °F 29.80 in West 1.2 mph 0.3 mph 35 % 0.00 in
16:09 76.1 °F 47.2 °F 29.79 in WNW 1.2 mph 0.8 mph 36 % 0.00 in
16:14 75.9 °F 44.7 °F 29.79 in NW 1.2 mph 0.6 mph 33 % 0.00 in
16:19 75.6 °F 46.0 °F 29.79 in WNW 2.3 mph 1.3 mph 35 % 0.00 in
16:24 75.6 °F 46.0 °F 29.79 in NW 1.2 mph 0.3 mph 35 % 0.00 in
16:29 75.5 °F 48.1 °F 29.79 in NW 1.2 mph 0.3 mph 38 % 0.00 in
16:34 75.4 °F 46.6 °F 29.79 in North 3.5 mph 0.9 mph 36 % 0.00 in
16:39 75.4 °F 47.3 °F 29.79 in Calm   0.6 mph 37 % 0.00 in
16:44 75.0 °F 47.0 °F 29.78 in NW 2.3 mph 0.5 mph 37 % 0.00 in
16:49 74.6 °F 47.3 °F 29.78 in NW 1.2 mph 0.5 mph 38 % 0.00 in
16:54 74.4 °F 47.8 °F 29.78 in NW 1.2 mph   39 % 0.00 in
16:59 74.1 °F 47.6 °F 29.77 in Calm     39 % 0.00 in
17:04 73.9 °F 46.7 °F 29.78 in Calm     38 % 0.00 in
17:09 73.8 °F 48.6 °F 29.78 in Calm   0.3 mph 41 % 0.00 in
17:14 73.5 °F 47.7 °F 29.77 in NW 1.2 mph   40 % 0.00 in
17:19 73.4 °F 46.9 °F 29.77 in Calm     39 % 0.00 in
17:24 73.2 °F 48.7 °F 29.77 in WNW 1.2 mph   42 % 0.00 in
17:29 72.9 °F 48.5 °F 29.78 in WNW 1.2 mph 0.1 mph 42 % 0.00 in
17:34 72.7 °F 49.5 °F 29.77 in NW 1.2 mph 1.0 mph 44 % 0.00 in
17:39 72.2 °F 48.5 °F 29.77 in Calm     43 % 0.00 in
17:44 72.1 °F 49.0 °F 29.77 in NW 1.2 mph   44 % 0.00 in
17:49 72.2 °F 47.8 °F 29.77 in WNW 1.2 mph 0.6 mph 42 % 0.00 in
17:54 72.3 °F 47.9 °F 29.77 in NW 1.2 mph 0.8 mph 42 % 0.00 in
17:59 72.3 °F 49.2 °F 29.77 in Calm     44 % 0.00 in
18:04 72.2 °F 49.1 °F 29.76 in Calm     44 % 0.00 in
18:09 72.2 °F 49.7 °F 29.77 in WNW 1.2 mph 0.1 mph 45 % 0.00 in
18:14 72.0 °F 49.5 °F 29.77 in Calm     45 % 0.00 in
18:19 71.6 °F 49.1 °F 29.77 in Calm     45 % 0.00 in
18:24 71.5 °F 49.6 °F 29.76 in Calm     46 % 0.00 in
18:29 71.3 °F 48.9 °F 29.76 in WNW 1.2 mph 0.2 mph 45 % 0.00 in
18:34 71.3 °F 49.4 °F 29.76 in Calm     46 % 0.00 in
18:39 71.0 °F 50.9 °F 29.76 in Calm     49 % 0.00 in
Park Place, Exeter, Tulare County, California, USA
Compliments of Weather Underground - 2.5 mb